Location: Oroua River
(40.4333°S, 175.4333°E)
Time: 14:39:00
(UTC+00:00)

Cosmos 2151 Rocket - Pass Details

Date: 03 February 2023
Orbit: 616 x 641 km, 82.5° (Epoch: 23 March)

Event Time Altitude Azimuth Distance (km) Brightness Sun altitude
Rises 15:50:42 0° 185° (S) 2,941 7.6 -16.8°
Reaches altitude 10° 15:52:59 10° 181° (S) 2,023 6.7 -16.4°
Maximum altitude 15:57:25 62° 100° (E) 709 4.1 -15.8°
Drops below altitude 10° 16:01:47 10° 18° (NNE) 1,986 6.0 -15.1°
Sets 16:04:01 0° 14° (NNE) 2,883 6.8 -14.8°
